Regional Weather Roundup
Issued by NWS Huntsville, AL

Home | Current Version | Previous Version | Text Only | Print | Product List | Glossary On
Versions: 1 2 3 4 5 6 7 8 9 10 11 12 13 14 15 16 17 18 19 20 21 22 23 24 25 26 27 28 29 30 31 32 33 34 35 36 37 38 39 40 41 42 43 44 45 46 47 48 49 50
000
ASUS44 KHUN 140810
RWRHUN

WEATHER ROUNDUP FOR THE TENNESSEE VALLEY
NATIONAL WEATHER SERVICE HUNTSVILLE AL
200 AM CST SUN FEB 14 2016

ALZ001>004-140900-
NORTHWEST ALABAMA

CITY           SKY/WX    TMP DP  RH WIND       PRES   REMARKS
COURTLAND HCN    N/A     27 N/A N/A E5          N/A  WCI  21
RUSSELLVILLE     N/A     27 N/A N/A MISG        N/A
SHOALS AIRPORT CLOUDY    27   9  46 E6        30.34F WCI  20
SHOALS TVA RES   N/A     27 N/A N/A MISG        N/A
$$

ALZ005>007-016-140900-
NORTH CENTRAL ALABAMA

CITY           SKY/WX    TMP DP  RH WIND       PRES   REMARKS
CULLMAN AG STN   N/A     25 N/A N/A E3          N/A
DECATUR AP     CLOUDY    24  11  57 NE5       30.35F WCI  18
HUNTSVILLE AP  CLOUDY    26   9  48 E6        30.33F WCI  19
HUN NWS/UAH      N/A     26   7  44 NE5         N/A  WCI  20
MERIDIANVILLE  CLOUDY    27  10  50 CALM      30.35F
REDSTONE ARSN  CLOUDY    25  10  53 E3        30.33F
VINEMONT AP    FAIR      26   8  47 E5        30.32F WCI  20
$$

ALZ008>010-140900-
NORTHEAST ALABAMA

CITY           SKY/WX    TMP DP  RH WIND       PRES   REMARKS
ALBERTVILLE    CLOUDY    27  18  69 E3        30.30F
FORT PAYNE     CLOUDY    27   9  46 NE6       30.33F WCI  20
SCOTTSBORO AP  CLOUDY    27  10  50 NE5       30.36F WCI  21
SCOTTSBORO HCN   N/A     27 N/A N/A MISG        N/A
VALLEY HEAD      N/A     25 N/A N/A MISG        N/A
$$

TNZ076-096-097-140900-
SOUTHEASTERN MIDDLE TENNESSEE

CITY           SKY/WX    TMP DP  RH WIND       PRES   REMARKS
TULLAHOMA      MOCLDY    25   5  42 E7        30.33F WCI  17
WINCHESTER     CLOUDY    25   9  50 E3        30.35F
$$

...SURROUNDING SITES...

CITY           SKY/WX    TMP DP  RH WIND       PRES   REMARKS
ATLANTA        CLOUDY    30   6  36 N7        30.34S WCI  23
ANNISTON       CLOUDY    29   9  43 E6        30.34F WCI  23
BIRMINGHAM     CLOUDY    31   7  36 E9        30.33F WCI  23
CHATTANOOGA    CLOUDY    27   4  37 NE9       30.39F WCI  18
DALTON         CLOUDY    28  10  47 N7        30.38F WCI  21
GADSDEN        PTCLDY    27  13  55 CALM      30.35F
GOLDEN TRNGL   CLEAR     32   9  37 E7        30.30S WCI  26
HALEYVILLE     FAIR      25  10  53 E3        30.31F
JACKSON TN     CLOUDY    27   8  44 E7        30.32F WCI  19
MEMPHIS        CLOUDY    31   9  39 E8        30.30S WCI  23
NASHVILLE      CLOUDY    27   4  37 E10       30.38F WCI  17
ROME           CLOUDY    26   8  46 N3        30.36F
SAVANNAH       CLOUDY    27   9  46 CALM      30.33F
TUPELO         CLEAR     30   8  39 E3        30.31F
TUSCALOOSA     CLEAR     30  11  45 NE5       30.32F WCI  25
$$

...GULF COAST WEATHER...

CITY           SKY/WX    TMP DP  RH WIND       PRES   REMARKS
GULFPORT       PTCLDY    42  24  49 E3        30.27F
PASCAGOULA     PTCLDY    40  24  53 NE3       30.29F
MOBILE         CLEAR     38  23  55 E6        30.28F WCI  33
GULF SHORES    MOSUNNY   38  23  53 CALM      30.29F
PENSACOLA      CLEAR     45  22  40 E9        30.28F
DESTIN         CLEAR     45  20  36 NE9       30.30F
PANAMA CITY    CLEAR     43  22  42 NE6       30.31F
APPALACHICOLA  PTCLDY    40  26  57 NE6       30.30F
$$




USA.gov is the U.S. government's official web portal to all federal, state and local government web resources and services.